Historique des stations

Station météo de Chailles

Altitude de la station : 86 m







Données météorologiques pour le 06/12/2022
Date
Heure
Températures Humidité Point de rosée Vitesse
du vent
Direction Rafales Windchill Pression Pluviométrie
Cumul
Date
Heure
Températures Humidité Point de rosée Vitesse
du vent
Direction Rafales Windchill Pression Pluviométrie
Cumul
06/12/2022 18:585.1 °C87 %3.1 °C5 km/hENE10 km/h4.21020 hPa0.0 mm
06/12/2022 18:485.1 °C87 %3.1 °C3 km/hE8 km/h5.01020 hPa0.0 mm
06/12/2022 18:435.1 °C87 %3.1 °C6 km/hNE10 km/h5.01020 hPa0.0 mm
06/12/2022 18:335.1 °C87 %3.1 °C5 km/hNNE15 km/h4.21020 hPa0.0 mm
06/12/2022 18:285.1 °C87 %3.1 °C10 km/hN10 km/h4.21020 hPa0.0 mm
06/12/2022 18:185.1 °C87 %3.1 °C6 km/hE13 km/h3.71020 hPa0.0 mm
06/12/2022 18:135.1 °C87 %3.1 °C6 km/hENE13 km/h3.71020 hPa0.0 mm
06/12/2022 18:035.1 °C87 %3.1 °C6 km/hE13 km/h3.71020 hPa0.0 mm
06/12/2022 17:585.1 °C87 %3.1 °C6 km/hE13 km/h3.71020 hPa0.0 mm
06/12/2022 17:485.1 °C87 %3.1 °C5 km/hE11 km/h4.21020 hPa0.0 mm
06/12/2022 17:435.1 °C87 %3.1 °C5 km/hNE11 km/h4.31020 hPa0.0 mm
06/12/2022 17:335.1 °C87 %3.1 °C6 km/hENE11 km/h3.71020 hPa0.0 mm
06/12/2022 17:285.1 °C87 %3.1 °C6 km/hNE11 km/h4.21020 hPa0.0 mm
06/12/2022 17:185.2 °C87 %3.2 °C5 km/hNE10 km/h4.31020 hPa0.0 mm
06/12/2022 17:135.2 °C87 %3.2 °C5 km/hNE10 km/h5.11020 hPa0.0 mm
06/12/2022 17:035.2 °C87 %3.2 °C3 km/hNE10 km/h5.21020 hPa0.0 mm
06/12/2022 16:585.2 °C87 %3.2 °C5 km/hNE10 km/h4.41020 hPa0.0 mm
06/12/2022 16:485.3 °C86 %3.2 °C5 km/hNNE11 km/h4.61020 hPa0.0 mm
06/12/2022 16:435.3 °C86 %3.2 °C5 km/hN10 km/h5.31020 hPa0.0 mm
06/12/2022 16:335.4 °C85 %3.1 °C3 km/hNNE10 km/h5.41020 hPa0.0 mm
06/12/2022 16:285.4 °C85 %3.1 °C2 km/hNE8 km/h4.61020 hPa0.0 mm
06/12/2022 16:185.4 °C84 %3.0 °C5 km/hENE11 km/h4.71020 hPa0.0 mm
06/12/2022 16:135.4 °C84 %3.0 °C8 km/hENE11 km/h4.71020 hPa0.0 mm
06/12/2022 16:035.5 °C83 %2.8 °C5 km/hENE10 km/h4.71020 hPa0.0 mm
06/12/2022 15:585.6 °C83 %2.9 °C5 km/hE13 km/h4.81020 hPa0.0 mm
06/12/2022 15:485.6 °C83 %2.9 °C5 km/hE11 km/h4.81020 hPa0.0 mm
06/12/2022 15:435.5 °C83 %2.8 °C8 km/hE13 km/h4.21020 hPa0.0 mm
06/12/2022 15:335.6 °C82 %2.7 °C6 km/hE11 km/h4.21020 hPa0.0 mm
06/12/2022 15:285.6 °C82 %2.7 °C6 km/hENE13 km/h4.21020 hPa0.0 mm
06/12/2022 15:185.6 °C82 %2.7 °C8 km/hE24 km/h3.81020 hPa0.0 mm
06/12/2022 15:135.5 °C83 %2.8 °C10 km/hE18 km/h4.21020 hPa0.0 mm
06/12/2022 15:035.5 °C85 %3.2 °C5 km/hE13 km/h4.71020 hPa0.0 mm
06/12/2022 14:585.5 °C86 %3.3 °C5 km/hNE10 km/h4.71020 hPa0.0 mm
06/12/2022 14:485.4 °C87 %3.5 °C5 km/hN11 km/h4.71020 hPa0.0 mm
06/12/2022 14:435.4 °C87 %3.5 °C6 km/hN16 km/h4.11020 hPa0.0 mm
06/12/2022 14:335.4 °C88 %3.6 °C5 km/hENE10 km/h4.71020 hPa0.0 mm
06/12/2022 14:285.4 °C88 %3.6 °C5 km/hNE11 km/h4.61020 hPa0.0 mm
06/12/2022 14:185.3 °C89 %3.7 °C3 km/hE11 km/h5.31020 hPa0.0 mm
06/12/2022 14:135.3 °C88 %3.5 °C-NNE11 km/h4.51020 hPa0.0 mm
06/12/2022 14:035.2 °C89 %3.6 °C5 km/hNNE10 km/h4.41020 hPa0.0 mm
06/12/2022 13:585.2 °C89 %3.6 °C3 km/hNNE11 km/h4.41020 hPa0.0 mm
06/12/2022 13:535.2 °C89 %3.5 °C5 km/hNNE11 km/h4.31020 hPa0.0 mm
06/12/2022 13:435.0 °C89 %3.3 °C8 km/hNNO10 km/h4.21020 hPa0.0 mm
06/12/2022 13:384.9 °C89 %3.2 °C5 km/hNE13 km/h4.11020 hPa0.0 mm
06/12/2022 13:284.9 °C90 %3.4 °C8 km/hENE11 km/h3.51020 hPa0.0 mm
06/12/2022 13:234.8 °C90 %3.3 °C6 km/hENE11 km/h3.31020 hPa0.0 mm
06/12/2022 13:134.7 °C89 %3.1 °C8 km/hNNE11 km/h3.31020 hPa0.0 mm
06/12/2022 13:084.7 °C90 %3.2 °C6 km/hN13 km/h3.21020 hPa0.0 mm
06/12/2022 12:584.7 °C90 %3.2 °C6 km/hENE13 km/h3.21020 hPa0.0 mm
06/12/2022 12:534.6 °C90 %3.1 °C6 km/hNE13 km/h3.11020 hPa0.0 mm
06/12/2022 12:434.6 °C90 %3.1 °C5 km/hNNE11 km/h3.11020 hPa0.0 mm
06/12/2022 12:334.5 °C90 %3.0 °C6 km/hNNE16 km/h3.01020 hPa0.0 mm
06/12/2022 12:284.6 °C90 %3.1 °C5 km/hENE16 km/h2.61020 hPa0.0 mm
06/12/2022 12:184.4 °C90 %2.9 °C6 km/hE19 km/h2.91021 hPa0.0 mm
06/12/2022 12:134.4 °C90 %2.9 °C5 km/hENE15 km/h2.91021 hPa0.0 mm
06/12/2022 12:034.3 °C90 %2.8 °C6 km/hNNE13 km/h2.81021 hPa0.0 mm
06/12/2022 11:584.3 °C90 %2.8 °C6 km/hNNE13 km/h2.81021 hPa0.0 mm
06/12/2022 11:484.2 °C91 %2.9 °C6 km/hE16 km/h2.71021 hPa0.0 mm
06/12/2022 11:434.2 °C91 %2.8 °C8 km/hE16 km/h2.61021 hPa0.0 mm
06/12/2022 11:334.1 °C91 %2.7 °C8 km/hE18 km/h2.11021 hPa0.0 mm
06/12/2022 11:284.1 °C91 %2.7 °C6 km/hNNE15 km/h2.51021 hPa0.0 mm
06/12/2022 11:183.9 °C91 %2.6 °C8 km/hNE18 km/h1.91021 hPa0.0 mm
06/12/2022 11:133.9 °C91 %2.6 °C3 km/hNE18 km/h1.91021 hPa0.0 mm
06/12/2022 11:033.9 °C92 %2.7 °C6 km/hNNE16 km/h2.31021 hPa0.0 mm
06/12/2022 10:583.9 °C92 %2.7 °C3 km/hENE16 km/h2.31021 hPa0.0 mm
06/12/2022 10:483.8 °C92 %2.7 °C5 km/hNE13 km/h2.81021 hPa0.0 mm
06/12/2022 10:433.8 °C92 %2.6 °C2 km/hNE13 km/h2.81021 hPa0.0 mm
06/12/2022 10:333.7 °C92 %2.5 °C6 km/h13 km/h2.11021 hPa0.0 mm
06/12/2022 10:283.7 °C92 %2.5 °C2 km/hENE13 km/h2.11021 hPa0.0 mm
06/12/2022 10:183.7 °C92 %2.5 °C5 km/hNNE8 km/h2.71021 hPa0.0 mm
06/12/2022 10:133.6 °C93 %2.5 °C6 km/hNNE10 km/h2.61021 hPa0.0 mm
06/12/2022 10:033.4 °C93 %2.4 °C5 km/hNNE10 km/h2.41021 hPa0.0 mm
06/12/2022 09:583.4 °C93 %2.4 °C3 km/hNE11 km/h2.41021 hPa0.0 mm
06/12/2022 09:483.3 °C93 %2.3 °C6 km/hENE11 km/h1.71021 hPa0.0 mm
06/12/2022 09:433.3 °C93 %2.3 °C3 km/hNE11 km/h2.31021 hPa0.0 mm
06/12/2022 09:333.3 °C93 %2.3 °C5 km/hE13 km/h2.31021 hPa0.0 mm
06/12/2022 09:283.2 °C93 %2.2 °C3 km/hENE10 km/h2.21021 hPa0.0 mm
06/12/2022 09:183.2 °C93 %2.2 °C5 km/hE11 km/h2.21021 hPa0.0 mm
06/12/2022 09:133.2 °C93 %2.2 °C5 km/hNE10 km/h2.21021 hPa0.0 mm
06/12/2022 09:033.2 °C93 %2.1 °C6 km/hNNE11 km/h1.51021 hPa0.0 mm
06/12/2022 08:583.2 °C93 %2.1 °C8 km/hENE11 km/h1.51021 hPa0.0 mm
06/12/2022 08:483.2 °C93 %2.1 °C5 km/hNE15 km/h2.11021 hPa0.0 mm
06/12/2022 08:433.1 °C93 %2.1 °C5 km/hENE11 km/h2.11021 hPa0.0 mm
06/12/2022 08:333.1 °C93 %2.1 °C5 km/hE10 km/h2.11021 hPa0.0 mm
06/12/2022 08:283.1 °C93 %2.1 °C6 km/hENE10 km/h2.11021 hPa0.0 mm
06/12/2022 08:183.1 °C93 %2.1 °C5 km/hENE11 km/h2.11020 hPa0.0 mm
06/12/2022 08:133.1 °C93 %2.1 °C10 km/hNNE10 km/h2.11020 hPa0.0 mm
06/12/2022 08:033.1 °C93 %2.1 °C5 km/hENE11 km/h2.11020 hPa0.0 mm
06/12/2022 07:583.1 °C93 %2.1 °C5 km/hE15 km/h2.11020 hPa0.0 mm
06/12/2022 07:483.2 °C93 %2.1 °C5 km/hENE10 km/h2.11020 hPa0.0 mm
06/12/2022 07:433.2 °C93 %2.1 °C3 km/hNNE11 km/h2.11020 hPa0.0 mm
06/12/2022 07:333.1 °C93 %2.1 °C5 km/hN11 km/h2.11020 hPa0.0 mm
06/12/2022 07:283.1 °C93 %2.1 °C6 km/hNNE11 km/h2.11020 hPa0.0 mm
06/12/2022 07:183.1 °C93 %2.1 °C5 km/hNE10 km/h2.11020 hPa0.0 mm
06/12/2022 07:133.1 °C92 %1.9 °C-E11 km/h2.11020 hPa0.0 mm
06/12/2022 07:033.1 °C92 %1.9 °C6 km/hE15 km/h1.41020 hPa0.0 mm
06/12/2022 06:583.1 °C92 %1.9 °C8 km/hENE16 km/h1.41020 hPa0.0 mm
06/12/2022 06:483.1 °C92 %1.9 °C5 km/hE16 km/h2.11020 hPa0.0 mm
06/12/2022 06:433.2 °C92 %2.0 °C5 km/hNNE13 km/h1.51020 hPa0.0 mm
06/12/2022 06:333.2 °C92 %2.0 °C5 km/hENE13 km/h2.11020 hPa0.0 mm
06/12/2022 06:283.2 °C92 %2.0 °C6 km/hNNE11 km/h2.21020 hPa0.0 mm
06/12/2022 06:183.3 °C93 %2.3 °C3 km/hNNE8 km/h3.11020 hPa0.0 mm
06/12/2022 06:133.3 °C93 %2.3 °C3 km/hNE10 km/h2.21020 hPa0.0 mm
06/12/2022 06:033.4 °C93 %2.4 °C5 km/hENE11 km/h2.31020 hPa0.0 mm
06/12/2022 05:583.4 °C93 %2.4 °C5 km/hENE11 km/h2.41020 hPa0.0 mm
06/12/2022 05:483.6 °C93 %2.5 °C5 km/hENE11 km/h2.61020 hPa0.0 mm
06/12/2022 05:433.6 °C92 %2.4 °C5 km/hNNE10 km/h2.61020 hPa0.0 mm
06/12/2022 05:333.7 °C92 %2.5 °C5 km/hNNE8 km/h2.71020 hPa0.0 mm
06/12/2022 05:283.7 °C92 %2.5 °C3 km/hNE8 km/h3.41020 hPa0.0 mm
06/12/2022 05:183.7 °C92 %2.5 °C3 km/hNNE8 km/h3.51020 hPa0.0 mm
06/12/2022 05:133.7 °C92 %2.5 °C2 km/hNE8 km/h3.41020 hPa0.0 mm
06/12/2022 05:033.7 °C92 %2.5 °C5 km/hE11 km/h2.71020 hPa0.0 mm
06/12/2022 04:583.7 °C92 %2.5 °C3 km/hENE11 km/h2.71020 hPa0.0 mm
06/12/2022 04:483.7 °C92 %2.5 °C5 km/hENE13 km/h2.71020 hPa0.0 mm
06/12/2022 04:433.7 °C92 %2.5 °C2 km/hNE15 km/h2.71020 hPa0.0 mm
06/12/2022 04:333.7 °C93 %2.7 °C5 km/hNE10 km/h2.71020 hPa0.0 mm
06/12/2022 04:283.7 °C93 %2.7 °C3 km/hNE10 km/h2.71020 hPa0.0 mm
06/12/2022 04:183.7 °C93 %2.7 °C6 km/hENE13 km/h2.11020 hPa0.0 mm
06/12/2022 04:133.7 °C93 %2.6 °C5 km/hNE13 km/h2.71020 hPa0.0 mm
06/12/2022 04:033.7 °C94 %2.8 °C3 km/hENE8 km/h3.51020 hPa0.0 mm
06/12/2022 03:583.7 °C94 %2.8 °C5 km/hENE10 km/h3.51020 hPa0.0 mm
06/12/2022 03:483.7 °C94 %2.8 °C5 km/hENE13 km/h2.71020 hPa0.0 mm
06/12/2022 03:433.7 °C94 %2.8 °C2 km/hNE10 km/h3.51020 hPa0.0 mm
06/12/2022 03:333.8 °C94 %2.9 °C3 km/hENE6 km/h3.61020 hPa0.0 mm
06/12/2022 03:283.8 °C94 %2.9 °C6 km/hENE10 km/h2.81020 hPa0.0 mm
06/12/2022 03:183.8 °C94 %3.0 °C3 km/hENE8 km/h3.71020 hPa0.0 mm
06/12/2022 03:133.8 °C94 %3.0 °C3 km/hNNE8 km/h3.71020 hPa0.0 mm
06/12/2022 03:033.8 °C94 %3.0 °C5 km/hNE11 km/h2.81020 hPa0.0 mm
06/12/2022 02:583.8 °C95 %3.1 °C3 km/hNE11 km/h2.81020 hPa0.0 mm
06/12/2022 02:483.9 °C95 %3.2 °C6 km/hENE16 km/h2.31020 hPa0.0 mm
06/12/2022 02:433.9 °C95 %3.2 °C5 km/hNE16 km/h2.91020 hPa0.0 mm
06/12/2022 02:333.9 °C95 %3.2 °C5 km/hENE10 km/h2.91020 hPa0.0 mm
06/12/2022 02:283.9 °C95 %3.2 °C3 km/hNNE11 km/h2.91020 hPa0.0 mm
06/12/2022 02:183.9 °C95 %3.2 °C5 km/hENE10 km/h2.91020 hPa0.0 mm
06/12/2022 02:133.9 °C95 %3.2 °C5 km/hNE10 km/h2.91021 hPa0.0 mm
06/12/2022 02:083.9 °C95 %3.2 °C5 km/hENE10 km/h2.91021 hPa0.0 mm
06/12/2022 01:584.0 °C95 %3.3 °C3 km/hNNE10 km/h3.81021 hPa0.0 mm
06/12/2022 01:534.0 °C95 %3.3 °C5 km/hNE11 km/h3.11021 hPa0.0 mm
06/12/2022 01:434.0 °C95 %3.3 °C6 km/hNE10 km/h3.11021 hPa0.0 mm
06/12/2022 01:384.0 °C95 %3.3 °C5 km/hNE10 km/h3.11021 hPa0.0 mm
06/12/2022 01:284.0 °C95 %3.3 °C6 km/hNE11 km/h3.11021 hPa0.0 mm
06/12/2022 01:234.1 °C95 %3.3 °C3 km/hN8 km/h3.91021 hPa0.0 mm
06/12/2022 01:134.1 °C95 %3.3 °C3 km/hENE11 km/h3.11021 hPa0.0 mm
06/12/2022 01:084.1 °C95 %3.3 °C5 km/hNE10 km/h3.11021 hPa0.0 mm
06/12/2022 00:584.1 °C95 %3.4 °C6 km/hENE10 km/h3.21021 hPa0.0 mm
06/12/2022 00:534.1 °C95 %3.4 °C5 km/hNE10 km/h3.21021 hPa0.0 mm
06/12/2022 00:434.2 °C95 %3.4 °C6 km/hENE11 km/h3.21021 hPa0.0 mm
06/12/2022 00:334.2 °C94 %3.3 °C5 km/hENE11 km/h3.21021 hPa0.0 mm
06/12/2022 00:284.2 °C94 %3.3 °C8 km/hN10 km/h3.21021 hPa0.0 mm
06/12/2022 00:184.2 °C94 %3.3 °C5 km/hNNE10 km/h3.31021 hPa0.0 mm
06/12/2022 00:134.2 °C94 %3.3 °C2 km/hNE10 km/h4.11021 hPa0.0 mm
06/12/2022 00:034.3 °C94 %3.4 °C3 km/h--4.11021 hPa0.0 mm


Minima :

Température : 3.1 °C
Humidité : 82 %
Point de rosée : 1.9 °C
Vent moyen : 2 km/h
Windchill : 1.4
Pression atm. : 1020 hPa
Maxima :

Température : 5.6 °C
Humidité : 95 %
Point de rosée : 3.7 °C
Vent moyen : 10 km/h
Windchill : 5.4
Pression atm. : 1021 hPa
Rafales max : 24 km/h
Cumul de pluie sur 24H : 0 mm

Chailles est une commune du département Loir-et-Cher (41).
La station météorologique du réseau de l'association la plus proche de Chailles est celle de Tour-en-Sologne
Site du propriétaire de la station : http://jmj41.com/meteo/



Icône Facebook Association Météo Centre Icône Twitter Association Météo Centre Icône Chaîne Youtube Association Météo Centre Icône contact Association Météo Centre Icône Insta Association Météo Centre